Kingston, Jamaica

8:03 AM EST on June 28, 2017 (GMT -0500)
Norman Manley International

Weather History for MKJP - October, 2013

Change the Weather History Date:

Sunday, October 6, 2013

  Actual Average Record
Temperature  
Mean Temperature 84 °F -  
Max Temperature 90 °F 87 °F 95 °F (2006)
Min Temperature 77 °F 78 °F 77 °F (2005)
Cooling Degree Days 18    
Growing Degree Days 34 (Base 50)    
Moisture  
Dew Point 77 °F    
Average Humidity 78    
Maximum Humidity 89    
Minimum Humidity 66    
Precipitation  
Precipitation 0.00 in - - ()
Sea Level Pressure  
Sea Level Pressure 29.88 in    
Wind  
Wind Speed 6 mph ()    
Max Wind Speed 15 mph    
Max Gust Speed -    
Visibility 7.4 miles    
Events Thunderstorm    
Averages and records for this station are not official NWS values.
T = Trace of Precipitation, MM = Missing Value Source: Averaged Metar Reports

Daily Weather History Graph

Daily Weather History Graph

Search for Another Location

Airport or City:

Trip Planner

Search our weather history database for the weather conditions in past years. The results will help you decide how hot, cold, wet, or windy it might be!

Date:

Astronomy

Oct. 06, 2013 Rise Set
Actual Time 5:58 AM EST 5:51 PM EST
Civil Twilight 5:36 AM EST 6:13 PM EST
Nautical Twilight 5:11 AM EST 6:38 PM EST
Astronomical Twilight 4:46 AM EST 7:03 PM EST
Moon 7:22 AM EST (10/6) 7:10 PM EST (10/6)
Length of Visible Light 12h 36m
Length of Day
11h 52m
Waxing Crescent, 3% of the Moon is Illuminated
Oct 6
Waxing Crescent
Oct 11
First Quarter
Oct 18
Full
Oct 26
Last Quarter
Nov 3
New

Hourly Weather History & Observations

Time (EST) Temp. Heat Index Dew Point Humidity Pressure Visibility Wind Dir Wind Speed Gust Speed Precip Events Conditions
12:00 AM 82.4 °F 89.5 °F 75.2 °F 79% 29.89 in 6.2 mi NNW 3.5 mph - N/A   Partly Cloudy
1:00 AM 85 °F - 78 °F 74% 29.88 in 12 mi NW 5.8 mph - -   Haze
1:00 AM 86.0 °F 99.3 °F 78.8 °F 79% 29.86 in 6.2 mi NW 5.8 mph - N/A   Partly Cloudy
2:00 AM 80.6 °F 86.2 °F 75.2 °F 84% 29.86 in 6.2 mi NNW 4.6 mph - N/A   Partly Cloudy
3:00 AM 80.6 °F 86.2 °F 75.2 °F 84% 29.83 in 6.2 mi NW 3.5 mph - N/A   Partly Cloudy
4:00 AM 81 °F - 76 °F 81% 29.86 in 12 mi North 4.6 mph - -   Haze
4:00 AM 80.6 °F 87.1 °F 77.0 °F 89% 29.86 in 6.2 mi North 4.6 mph - N/A   Partly Cloudy
5:00 AM 80.6 °F 86.2 °F 75.2 °F 84% 29.86 in 6.2 mi NNE 3.5 mph - N/A   Partly Cloudy
6:00 AM 80.6 °F 85.4 °F 73.4 °F 79% 29.86 in 6.2 mi NW 3.5 mph - N/A   Partly Cloudy
7:00 AM 80 °F - 77 °F 88% 29.89 in 12 mi North 3.5 mph - -   Haze
7:00 AM 80.6 °F 87.1 °F 77.0 °F 89% 29.89 in 6.2 mi North 3.5 mph - N/A   Partly Cloudy
8:00 AM 84.2 °F 94.1 °F 77.0 °F 79% 29.89 in 6.2 mi NNW 3.5 mph - N/A   Partly Cloudy
9:00 AM 86.0 °F 96.9 °F 77.0 °F 74% 29.92 in 6.2 mi NW 4.6 mph - N/A   Partly Cloudy
10:00 AM 86 °F - 76 °F 66% 29.93 in 4 mi South 6.9 mph - -   Haze
10:00 AM 86.0 °F 96.9 °F 77.0 °F 74% 29.92 in 6.2 mi South 6.9 mph - N/A   Partly Cloudy
11:00 AM 87.8 °F 99.7 °F 77.0 °F 70% 29.89 in 6.2 mi South 9.2 mph - N/A   Partly Cloudy
12:00 PM 87.8 °F 102.5 °F 78.8 °F 75% 29.89 in 6.2 mi SSE 13.8 mph - N/A   Partly Cloudy
1:00 PM 89 °F - 80 °F 67% 29.87 in 12 mi SSE 15.0 mph - -   Partly Cloudy
1:00 PM 89.6 °F 104.7 °F 78.8 °F 70% 29.86 in 6.2 mi SSE 15.0 mph - N/A   Partly Cloudy
2:00 PM 87.8 °F 102.5 °F 78.8 °F 75% 29.83 in 6.2 mi SSE 13.8 mph - N/A Thunderstorm Thunderstorm
3:00 PM 86.0 °F 96.9 °F 77.0 °F 74% 29.86 in 6.2 mi SE 11.5 mph - N/A Thunderstorm Thunderstorm
4:00 PM 85 °F - 77 °F 71% 29.85 in 12 mi SSE 10.4 mph - - Thunderstorm Light Thunderstorm
4:00 PM 86.0 °F 96.9 °F 77.0 °F 74% 29.83 in 6.2 mi SSE 10.4 mph - N/A   Mostly Cloudy
5:00 PM 86.0 °F 96.9 °F 77.0 °F 74% 29.86 in 6.2 mi SE 10.4 mph - N/A   Mostly Cloudy
6:00 PM 84.2 °F 94.1 °F 77.0 °F 79% 29.86 in 6.2 mi SE 9.2 mph - N/A   Partly Cloudy
7:00 PM 84 °F - 79 °F 80% 29.88 in 12 mi NNE 4.6 mph - -   Haze
7:00 PM 84.2 °F 96.1 °F 78.8 °F 84% 29.86 in 6.2 mi NNE 4.6 mph - N/A   Partly Cloudy
8:00 PM 84.2 °F 94.1 °F 77.0 °F 79% 29.89 in 6.2 mi NNE 6.9 mph - N/A   Partly Cloudy
9:00 PM 82.4 °F 90.9 °F 77.0 °F 84% 29.92 in 6.2 mi NNE 8.1 mph - N/A   Partly Cloudy
10:00 PM 83 °F - 76 °F 73% 29.94 in 12 mi NNE 5.8 mph - -   Scattered Clouds
10:00 PM 82.4 °F 89.5 °F 75.2 °F 79% 29.92 in 6.2 mi NNE 5.8 mph - N/A   Partly Cloudy
11:00 PM 82.4 °F 89.5 °F 75.2 °F 79% 29.92 in 6.2 mi North 6.9 mph - N/A   Partly Cloudy